Voreifelwetter - Wetterstation Drove - Standort 5043'47" - 0630'49"
Wetterdaten: aktuell Dienstag, 18.09.2018 22:45
Datum Zeit Temp. A. Feuchte A. Luftdruck Regen Wind Richtung Richtung Sonnenschein Helligkeit Taupunkt Windchill
18.09.2018 22:45 19,0 C 63 % 1014,1 hPa 0,0 mm 0,0 km/h (0 Bft) N-NW 330 0 min 0 lux 11,8 C 19,0 C
18.09.2018 22:30 19,5 C 61 % 1014,1 hPa 0,0 mm 0,0 km/h (0 Bft) N-NW 340 0 min 0 lux 11,8 C 19,5 C
18.09.2018 22:15 20,0 C 59 % 1014,0 hPa 0,0 mm 0,6 km/h (0 Bft) N-NW22.5 340 0 min 0 lux 11,7 C 20,0 C
18.09.2018 22:00 20,7 C 59 % 1014,0 hPa 0,0 mm 0,0 km/h (0 Bft) NW 320 0 min 0 lux 12,4 C 20,7 C
18.09.2018 21:45 21,5 C 57 % 1013,9 hPa 0,0 mm 0,0 km/h (0 Bft) NW 320 0 min 0 lux 12,6 C 21,5 C
18.09.2018 21:30 22,4 C 54 % 1012,8 hPa 0,0 mm 0,6 km/h (0 Bft) NW22.5 320 0 min 0 lux 12,6 C 22,4 C
18.09.2018 21:15 22,8 C 53 % 1012,8 hPa 0,0 mm 5,9 km/h (2 Bft) N-NW22.5 330 0 min 0 lux 12,7 C 22,8 C
18.09.2018 21:00 23,1 C 52 % 1012,8 hPa 0,0 mm 11,0 km/h (2 Bft) NW45 325 0 min 0 lux 12,7 C 21,8 C
18.09.2018 20:45 23,6 C 50 % 1012,7 hPa 0,0 mm 9,0 km/h (2 Bft) N-NW45 335 0 min 0 lux 12,6 C 22,9 C
18.09.2018 20:30 24,0 C 48 % 1012,7 hPa 0,0 mm 6,1 km/h (2 Bft) SW45 225 0 min 1 lux 12,3 C 24,0 C
18.09.2018 20:15 24,4 C 48 % 1011,7 hPa 0,0 mm 12,1 km/h (2 Bft) SW45 235 0 min 33 lux 12,7 C 23,1 C
18.09.2018 20:00 24,8 C 45 % 1011,6 hPa 0,0 mm 8,4 km/h (2 Bft) W-SW45 240 0 min 253 lux 12,0 C 24,3 C
18.09.2018 19:45 25,4 C 44 % 1011,6 hPa 0,0 mm 17,6 km/h (3 Bft) W-NW67.5 290 0 min 1,12 klux 12,2 C 23,5 C
18.09.2018 19:30 25,9 C 43 % 1011,6 hPa 0,0 mm 24,0 km/h (4 Bft) SW45 225 15 min 3,56 klux 12,3 C 23,5 C
18.09.2018 19:15 26,4 C 41 % 1010,5 hPa 0,0 mm 18,3 km/h (3 Bft) SW45 235 15 min 7,36 klux 12,1 C 24,6 C
18.09.2018 19:00 27,2 C 39 % 1010,4 hPa 0,0 mm 25,6 km/h (4 Bft) SW45 230 15 min 17,1 klux 12,0 C 25,1 C
18.09.2018 18:45 27,9 C 37 % 1010,4 hPa 0,0 mm 20,6 km/h (4 Bft) W-SW67.5 250 15 min 20,9 klux 11,8 C 26,4 C
18.09.2018 18:30 28,4 C 36 % 1010,4 hPa 0,0 mm 18,9 km/h (3 Bft) SW45 230 15 min 26,9 klux 11,9 C 27,1 C
18.09.2018 18:15 28,8 C 35 % 1010,3 hPa 0,0 mm 17,0 km/h (3 Bft) W67.5 260 15 min 30,6 klux 11,8 C 27,8 C
18.09.2018 18:00 28,8 C 34 % 1010,3 hPa 0,0 mm 20,1 km/h (4 Bft) W67.5 275 15 min 31,6 klux 11,4 C 27,6 C
18.09.2018 17:45 29,4 C 33 % 1010,3 hPa 0,0 mm 20,6 km/h (4 Bft) W67.5 260 15 min 35,3 klux 11,4 C 28,3 C
18.09.2018 17:30 30,2 C 32 % 1010,2 hPa 0,0 mm 24,5 km/h (4 Bft) SW67.5 235 15 min 43,8 klux 11,7 C 29,2 C
18.09.2018 17:15 30,1 C 32 % 1010,2 hPa 0,0 mm 26,1 km/h (4 Bft) SW45 230 15 min 48,0 klux 11,6 C 29,0 C
18.09.2018 17:00 29,8 C 32 % 1010,3 hPa 0,0 mm 30,7 km/h (5 Bft) SW67.5 235 15 min 49,4 klux 11,3 C 28,5 C
18.09.2018 16:45 29,4 C 32 % 1010,3 hPa 0,0 mm 33,0 km/h (5 Bft) SW67.5 225 15 min 36,3 klux 11,0 C 27,8 C
18.09.2018 16:30 30,5 C 32 % 1009,2 hPa 0,0 mm 25,6 km/h (4 Bft) W-SW67.5 245 15 min 59,4 klux 11,9 C 29,6 C
18.09.2018 16:15 31,8 C 29 % 1009,1 hPa 0,0 mm 25,6 km/h (4 Bft) W-NW67.5 290 15 min 59,8 klux 11,5 C 31,4 C
18.09.2018 16:00 32,1 C 28 % 1009,1 hPa 0,0 mm 28,5 km/h (4 Bft) W-NW67.5 295 15 min 59,9 klux 11,3 C 31,7 C
18.09.2018 15:45 32,3 C 29 % 1009,1 hPa 0,0 mm 27,3 km/h (4 Bft) NW67.5 305 15 min 61,0 klux 12,0 C 32,0 C
18.09.2018 15:30 32,3 C 29 % 1009,1 hPa 0,0 mm 22,8 km/h (4 Bft) W-NW67.5 285 14 min 63,5 klux 12,0 C 32,1 C
18.09.2018 15:16 32,2 C 30 % 1009,1 hPa 0,0 mm 23,6 km/h (4 Bft) W-SW67.5 245 15 min 66,0 klux 12,4 C 31,9 C
18.09.2018 15:00 32,1 C 30 % 1009,1 hPa 0,0 mm 26,6 km/h (4 Bft) SW67.5 230 15 min 66,4 klux 12,3 C 31,8 C
18.09.2018 14:45 32,0 C 30 % 1009,1 hPa 0,0 mm 24,8 km/h (4 Bft) W67.5 270 15 min 67,8 klux 12,2 C 31,6 C
18.09.2018 14:30 32,1 C 30 % 1009,1 hPa 0,0 mm 25,3 km/h (4 Bft) W67.5 270 15 min 70,4 klux 12,3 C 31,8 C
18.09.2018 14:15 32,0 C 30 % 1009,1 hPa 0,0 mm 24,5 km/h (4 Bft) W-SW67.5 250 15 min 72,3 klux 12,2 C 31,7 C
18.09.2018 14:00 32,0 C 31 % 1009,1 hPa 0,0 mm 27,9 km/h (4 Bft) W-NW67.5 290 15 min 71,4 klux 12,7 C 31,6 C
18.09.2018 13:45 31,7 C 32 % 1009,1 hPa 0,0 mm 24,1 km/h (4 Bft) SW45 235 14 min 71,4 klux 12,9 C 31,3 C
18.09.2018 13:31 31,2 C 33 % 1009,2 hPa 0,0 mm 27,5 km/h (4 Bft) W-SW67.5 245 15 min 70,3 klux 13,0 C 30,5 C
18.09.2018 13:15 30,9 C 37 % 1009,2 hPa 0,0 mm 18,0 km/h (3 Bft) W-SW67.5 255 15 min 69,9 klux 14,5 C 30,3 C
18.09.2018 13:00 30,6 C 39 % 1009,2 hPa 0,0 mm 21,9 km/h (4 Bft) W-SW67.5 250 15 min 69,6 klux 15,0 C 29,8 C
18.09.2018 12:45 30,2 C 39 % 1010,2 hPa 0,0 mm 27,0 km/h (4 Bft) W-SW67.5 250 15 min 67,4 klux 14,7 C 29,1 C
18.09.2018 12:30 29,6 C 43 % 1010,3 hPa 0,0 mm 22,2 km/h (4 Bft) W-NW67.5 285 15 min 66,7 klux 15,7 C 28,5 C
18.09.2018 12:15 29,6 C 44 % 1010,3 hPa 0,0 mm 25,3 km/h (4 Bft) W67.5 265 15 min 65,4 klux 16,0 C 28,4 C
18.09.2018 12:00 29,3 C 44 % 1010,3 hPa 0,0 mm 27,9 km/h (4 Bft) W67.5 265 15 min 63,5 klux 15,8 C 27,9 C
18.09.2018 11:45 29,4 C 43 % 1010,3 hPa 0,0 mm 22,6 km/h (4 Bft) W-SW45 250 15 min 61,5 klux 15,5 C 28,2 C
18.09.2018 11:30 29,2 C 43 % 1010,3 hPa 0,0 mm 16,2 km/h (3 Bft) W-SW45 245 15 min 59,8 klux 15,3 C 28,3 C
18.09.2018 11:15 28,9 C 42 % 1010,3 hPa 0,0 mm 17,2 km/h (3 Bft) W-SW67.5 245 15 min 57,6 klux 14,7 C 27,9 C
18.09.2018 11:00 28,4 C 42 % 1009,3 hPa 0,0 mm 18,3 km/h (3 Bft) SW45 230 15 min 54,8 klux 14,2 C 27,2 C
18.09.2018 10:45 27,8 C 43 % 1009,4 hPa 0,0 mm 20,6 km/h (4 Bft) W-SW45 240 15 min 51,8 klux 14,1 C 26,2 C
18.09.2018 10:30 27,0 C 43 % 1009,4 hPa 0,0 mm 24,7 km/h (4 Bft) SW45 220 15 min 49,2 klux 13,3 C 24,9 C
18.09.2018 10:15 26,3 C 43 % 1009,5 hPa 0,0 mm 26,0 km/h (4 Bft) SW45 230 15 min 45,8 klux 12,7 C 23,8 C
18.09.2018 10:00 25,9 C 43 % 1009,5 hPa 0,0 mm 24,7 km/h (4 Bft) SW45 215 15 min 42,9 klux 12,3 C 23,4 C
18.09.2018 09:45 25,2 C 45 % 1009,6 hPa 0,0 mm 18,1 km/h (3 Bft) S-SW67.5 210 15 min 40,0 klux 12,4 C 23,1 C
18.09.2018 09:30 24,2 C 49 % 1009,6 hPa 0,0 mm 15,0 km/h (3 Bft) S-SW45 205 15 min 36,1 klux 12,8 C 22,3 C
18.09.2018 09:15 23,3 C 50 % 1009,7 hPa 0,0 mm 18,1 km/h (3 Bft) S-SW45 205 15 min 32,8 klux 12,3 C 20,7 C
18.09.2018 09:00 22,5 C 52 % 1009,8 hPa 0,0 mm 16,6 km/h (3 Bft) SW45 215 15 min 28,6 klux 12,1 C 20,0 C
18.09.2018 08:45 21,7 C 55 % 1009,8 hPa 0,0 mm 17,8 km/h (3 Bft) SW22.5 215 15 min 24,9 klux 12,3 C 18,8 C
18.09.2018 08:30 20,0 C 60 % 1009,9 hPa 0,0 mm 11,8 km/h (2 Bft) SW45 215 15 min 20,4 klux 12,0 C 18,1 C
18.09.2018 08:15 16,4 C 71 % 1010,2 hPa 0,0 mm 6,7 km/h (2 Bft) S-SO22.5 150 15 min 15,8 klux 11,1 C 16,3 C
18.09.2018 08:00 14,8 C 73 % 1010,3 hPa 0,0 mm 1,2 km/h (1 Bft) O22.5 95 15 min 10,7 klux 10,0 C 14,8 C
18.09.2018 07:45 13,8 C 72 % 1010,4 hPa 0,0 mm 0,0 km/h (0 Bft) SO 125 0 min 2,55 klux 8,8 C 13,8 C
18.09.2018 07:31 13,9 C 71 % 1010,4 hPa 0,0 mm 0,0 km/h (0 Bft) SO 125 0 min 1,79 klux 8,7 C 13,9 C
18.09.2018 07:15 14,2 C 70 % 1010,4 hPa 0,0 mm 3,9 km/h (1 Bft) SO22.5 130 0 min 433 lux 8,8 C 14,2 C
18.09.2018 07:00 14,4 C 69 % 1010,3 hPa 0,0 mm 0,1 km/h (0 Bft) SO22.5 135 0 min 76 lux 8,8 C 14,4 C
18.09.2018 06:45 14,6 C 68 % 1010,3 hPa 0,0 mm 0,0 km/h (0 Bft) S-SO 150 0 min 0 lux 8,8 C 14,6 C
18.09.2018 06:30 15,2 C 66 % 1011,3 hPa 0,0 mm 0,0 km/h (0 Bft) S-SO 150 0 min 0 lux 8,9 C 15,2 C
18.09.2018 06:15 15,8 C 65 % 1011,3 hPa 0,0 mm 0,0 km/h (0 Bft) S-SW22.5 210 0 min 0 lux 9,2 C 15,8 C
18.09.2018 06:00 16,6 C 63 % 1011,2 hPa 0,0 mm 0,0 km/h (0 Bft) S-SW22.5 200 0 min 0 lux 9,5 C 16,6 C
18.09.2018 05:45 17,5 C 62 % 1011,1 hPa 0,0 mm 5,7 km/h (1 Bft) SO45 145 0 min 0 lux 10,1 C 17,5 C
18.09.2018 05:30 18,1 C 60 % 1011,1 hPa 0,0 mm 8,1 km/h (2 Bft) S-SO22.5 150 0 min 0 lux 10,2 C 17,3 C
18.09.2018 05:15 18,8 C 59 % 1011,0 hPa 0,0 mm 11,3 km/h (2 Bft) S-SO45 160 0 min 0 lux 10,6 C 16,9 C
18.09.2018 05:00 19,2 C 58 % 1011,0 hPa 0,0 mm 14,3 km/h (3 Bft) S-SO45 155 0 min 0 lux 10,7 C 16,5 C
18.09.2018 04:45 19,2 C 58 % 1011,0 hPa 0,0 mm 12,4 km/h (3 Bft) S-SO67.5 155 0 min 0 lux 10,7 C 17,0 C
18.09.2018 04:30 19,1 C 59 % 1011,0 hPa 0,0 mm 14,5 km/h (3 Bft) S67.5 190 0 min 0 lux 10,9 C 16,3 C
18.09.2018 04:15 19,0 C 60 % 1011,0 hPa 0,0 mm 14,6 km/h (3 Bft) S-SW22.5 205 0 min 0 lux 11,1 C 16,1 C
18.09.2018 04:00 18,6 C 61 % 1011,1 hPa 0,0 mm 13,1 km/h (3 Bft) SW45 215 0 min 0 lux 10,9 C 16,1 C
18.09.2018 03:45 17,4 C 64 % 1012,2 hPa 0,0 mm 11,3 km/h (2 Bft) S67.5 190 0 min 0 lux 10,5 C 15,3 C
18.09.2018 03:30 15,7 C 68 % 1012,3 hPa 0,0 mm 8,1 km/h (2 Bft) SO22.5 140 0 min 0 lux 9,8 C 14,8 C
18.09.2018 03:16 15,1 C 69 % 1012,3 hPa 0,0 mm 9,0 km/h (2 Bft) S-SO22.5 150 0 min 0 lux 9,5 C 13,7 C
18.09.2018 03:00 13,6 C 73 % 1012,4 hPa 0,0 mm 5,2 km/h (1 Bft) SO22.5 145 0 min 0 lux 8,9 C 13,6 C
18.09.2018 02:45 12,1 C 73 % 1012,6 hPa 0,0 mm 0,1 km/h (0 Bft) SO 135 0 min 0 lux 7,4 C 12,1 C
18.09.2018 02:30 12,0 C 72 % 1012,6 hPa 0,0 mm 0,0 km/h (0 Bft) S-SO 150 0 min 0 lux 7,1 C 12,0 C
18.09.2018 02:15 12,0 C 72 % 1012,6 hPa 0,0 mm 0,0 km/h (0 Bft) SO 145 0 min 0 lux 7,1 C 12,0 C
18.09.2018 02:00 12,0 C 72 % 1012,6 hPa 0,0 mm 0,0 km/h (0 Bft) SO 145 0 min 0 lux 7,1 C 12,0 C
18.09.2018 01:45 12,3 C 69 % 1012,5 hPa 0,0 mm 0,0 km/h (0 Bft) SO 145 0 min 0 lux 6,8 C 12,3 C
18.09.2018 01:30 12,6 C 69 % 1012,5 hPa 0,0 mm 0,0 km/h (0 Bft) S-SW 205 0 min 0 lux 7,1 C 12,6 C
18.09.2018 01:15 12,8 C 67 % 1013,5 hPa 0,0 mm 0,0 km/h (0 Bft) S-SW 205 0 min 0 lux 6,8 C 12,8 C
18.09.2018 01:00 13,3 C 65 % 1013,5 hPa 0,0 mm 0,0 km/h (0 Bft) S-SW 205 0 min 0 lux 6,9 C 13,3 C
18.09.2018 00:45 13,8 C 64 % 1013,5 hPa 0,0 mm 0,0 km/h (0 Bft) S-SW 205 0 min 0 lux 7,1 C 13,8 C
18.09.2018 00:30 14,0 C 65 % 1013,4 hPa 0,0 mm 0,0 km/h (0 Bft) SW 230 0 min 0 lux 7,5 C 14,0 C
18.09.2018 00:15 13,8 C 64 % 1013,5 hPa 0,0 mm 5,4 km/h (1 Bft) S-SW22.5 205 0 min 0 lux 7,1 C 13,8 C
18.09.2018 00:00 14,0 C 63 % 1013,4 hPa 0,0 mm 5,0 km/h (1 Bft) S67.5 175 0 min 0 lux 7,1 C 14,0 C
_ Min-Zeit 02:00 16:00 15:30 - 00:30 - - - - 01:45 02:00
Minimum _ 12,0 C 28 % 1009,1 hPa - 0,0 km/h (0 Bft) - - - - 6,8 C 12,0 C
_ Max-Zeit 15:30 02:45 22:45 00:00 16:45 - - 08:00 14:15 12:15 15:30
Maximum _ 32,3 C 73 % 1014,1 hPa 0,0 mm 33,0 km/h
SW (5 Bft)
- - 15 min 72,3 klux 16,0 C 32,1 C
Durchschnitt _ 22,9 C 51 % 1011,0 hPa #0,0 mm 13,5 km/h (3 Bft) SW - #11:43 h 24,5 klux 11,3 C 22,0 C